星链-32828 (STARLINK-32828)

导读

STARLINK-32828是美国太空探索技术公司(SpaceX)星链星座的一员,于2025年2月18日发射入轨。星链项目旨在打造全球卫星互联网星座,为全球偏远地区、海洋等网络覆盖薄弱区域提供高速低延迟的互联网服务,该卫星承担着拓展星座网络覆盖范围、提升服务容量的任务。

基本信息
目录编号:
63045
目录名称:
STARLINK-32828
国际标识:
2025-034S
轨道中心:
EARTH
卫星名称:
星链-32828
卫星全名:
星链-32828 (STARLINK-32828)
卫星状态:
在轨 (已飞行481 天)
发射日期:
2025-02-18 UTC
国别 :
美国 (US)
星等 :
--
轨道信息
数据来源 国际轨道数据 AOE轨道数据
星历时间 2026-06-14T05:10:13+0800
12小时前
查看轨道信息
2026-06-13T06:00:00+0800
1天前
查看轨道信息
半长轴 6853.348km 6853.39km
偏心率 0.0001304 0.0001442
轨道倾角 53.156° 53.154°
近地点辐角 110.111° 70.174°
升交点赤经 184.150° 188.632°
平近点角 250.003° 8.728°
近地点 474.317km 474.264km
远地点 476.105km 476.242km
周期 94.105分钟 94.106分钟
每日圈数 15.302015 15.301873
详细信息
固有亮度:
5
最大亮度:
2.5
卫星平台:
Starlink V1.0
覆盖范围:
全球
运营商:
太空探索技术公司
运营商所在国:
美国
制造商(研发单位):
太空探索技术公司
制造商所在国:
美国
使用方式:
暂无
卫星简介
Starlink 计划是 SpaceX 推出的全球卫星互联网项目,通过发射低轨道卫星,为全球尤其是偏远地区提供高速、低延迟的互联网服务。自 2019 年起,Starlink 已部署数千颗卫星,旨在缩小全球数字鸿沟,推动互联网普及。该项目还为军事、航空等行业提供通信支持,带来广泛经济效益。
2D轨道图
3D轨道图
轨道高度分析图
轨道倾角分析图
轨道综合分析图
查看轨道综合分析图